EHI
0 0 0 0 0 0 0 0 0 0 0 0 0 0 0 0 0 0 0 0 0 0 0 0 0 0 0 0 0 0 0 0 0 0 0 0 0 0
0 0 0 0 0 0 0 0 0 0 0 0 0 0 0 0 0 0 0 0 0 0 0 0 0 0 0 0 0 0 0 0 0 0 0 0 0 0
0 0 0 0 0 0 0 0 0 0 0 0 0 0 0 0 0 0 0 0 0 0 0 0 0 0 0 0 0 0 0 0 0 0 0 0 0 0
0 0 0 0 0 0 0 0 0 0 0 0 0 0 0 0 0 0 0 0 0 0 0 0 0 0 0 0 0 0 0 0 0 0 0 0 0 0
0 0 0 0 0 0 0 0 0 0 0 0 0 0 0 0 0 0 0 0 0 0 0 0 0 0 0 0 0 0 0 0 0 0 0 0 0 0
0 0 0 0 0 0 0 0 0 0 0 0 0 0 0 0 0 0 0 0 0 0 0 0 0 0 0 0 0 0 0 0 0 0 0 0 0 0
0 0 0 0 0 0 0 0 0 0 0 0 0 0 0 0 0 0 0 0 0 0 0 0 0 0 0 0 0 0 0 0 0 0 0 0 0 0
0 0 0 0 0 0 0 0 0 0 0 0 0 0 0 0 0 0 0 0 0 0 0 0 0 0 0 0 0 0 0 0 0 0 0 0 0 0
0 0 0 0 0 0 0 0 0 0 0 0 0 0 0 0 0 0 0 0 0 0 0 0 0 0 0 0 0 0 0 0 0 0 0 0 0 0
0 0 0 0 0 0 0 0 0 0 0 0 0 0 0 0 0 0 0 0 0 0 0 0 0 0 0 0 0 0 0 0 0 0 0 0 0 0
0 0 0 0 0 0 0 0 0 0 0 0 0 0 0 0 0 0 0 0 0 0 0 0 0 0 0 0 0 0 0 0 0 0 0 0 0 0
0 0 0 0 0 0 0 0 0 0 0 0 0 0 0 0 0 0 0 0 0 0 0 0 0 0 0 0 0 0 0 0 0 0 0 0 0 0
0 0 0 0 0 0 0 0 0 0 0 0 0 0 0 0 0 0 0 0 0 0 0 0 0 0 0 0 0 0 0 0 0 0 0 0 0 0
0 0 0 0 0 0 0 0 0 0 0 0 0 0 0 0 0 0 0 0 0 0 0 0 0 0 0 0 0 0 0 0 0 0 0 0 0 0
0 0 0 0 0 0 0 0 0 0 0 0 0 0 0 0 0 0 0 0 0 0 0 0 0 0 0 0 0 0 0 0 0 0 0 0 0 0
0 0 0 0 0 0 0 0 0 0 0 0 0 0 0 0 0 0 0 0 0 0 0 0 0 0 0 0 0 0 0 0 0 0 0 0 0 0
0 0 0 0 0 0 0 0 0 0 0 0 0 0 0 0 0 0 0 0 0 0 0 0 0 0 0 0 0 0 0 0 0 0 0 0 0 0
0 0 0 0 0 0 0 0 0 0 0 0 0 0 0 0 0 0 0 0 0 0 0 0 0 0 0 0 0 0 0 0 0 0 0 0 0 0
0 0 0 0 0 0 0 0 0 0 0 0 0 0 0 0 0 0 0 0 0 0 0 0 0 0 0 0 0 0 0 0 0 0 0 0 0 0
0 0 0 0 0 0 0 0 0 0 0 0 0 0 0 0 0 0 0 0 0 0 0 0 0 0 0 0 0 0 0 0 0 0 0 0 0 0
0 0 0 0 0 0 0 0 0 0 0 0 0 0 0 0 0 0 0 0 0 0 0 0 0 0 0 0 0 0 0 0 0 0 0 0 0 0
0 0 0 0 0 0 0 0 0 0 0 0 0 0 0 0 0 0 0 0 0 0 0 0 0 0 0 0 0 0 0 0 0 0 0 0 0 0
0 0 0 0 0 0 0 0 0 0 0 0 0 0 0 0 0 0 0 0 0 0 0 0 0 0 0 0 0 0 0 0 0 0 0 0 0 0
Wind_Speed
4 4 3 3 2 3 3 3 4 4 4 3 2 2 3 4 4 5 5 6 8 8 8 8 8 9 9 10 9 9 9 9 10 10 11 12 12 13
3 4 4 3 2 3 3 3 4 5 4 3 3 3 4 4 5 5 5 7 7 7 8 8 8 8 8 8 9 9 9 9 10 11 11 12 12 13
4 4 4 4 3 3 3 3 4 4 6 4 4 4 5 5 4 4 5 5 4 5 7 7 7 7 8 8 9 9 9 9 10 11 11 11 12 12
4 4 4 3 4 3 3 4 4 4 5 6 4 4 5 5 5 5 4 4 4 5 6 7 8 7 8 8 9 9 9 9 10 11 11 11 12 12
4 4 4 4 4 3 4 4 3 3 4 5 5 4 4 4 5 4 5 4 4 4 6 7 8 8 8 8 9 9 9 9 10 10 10 11 11 12
4 4 4 5 5 4 4 4 3 4 4 4 4 4 4 4 4 4 4 4 4 4 4 5 6 7 8 8 9 9 9 9 9 9 10 10 11 11
4 4 4 5 5 5 4 4 4 4 4 4 4 4 3 3 3 3 4 5 5 3 4 4 4 4 4 6 7 8 8 9 9 10 10 10 10 11
4 4 4 5 6 7 7 7 6 5 5 4 4 5 5 4 4 4 4 5 4 2 4 5 4 4 4 4 6 7 8 8 9 10 10 11 11 11
4 4 3 4 5 5 5 6 6 7 7 6 6 6 6 5 5 5 5 5 5 4 4 5 4 5 5 5 7 8 8 8 9 9 10 10 11 11
4 4 5 4 4 4 4 4 5 5 6 6 6 6 6 5 5 5 6 6 6 4 3 5 5 5 5 5 5 7 8 9 9 9 9 10 11 11
4 4 5 4 4 4 4 4 5 4 4 5 6 6 6 7 6 4 4 4 5 4 2 4 4 5 5 5 4 6 7 8 9 9 9 9 10 11
3 4 5 5 5 5 5 5 5 4 3 3 4 5 5 5 6 5 4 4 4 4 2 3 4 4 4 4 4 4 5 6 7 8 9 9 9 7
3 3 3 5 6 6 6 5 5 4 4 4 4 3 3 3 3 4 4 4 5 4 3 3 3 4 4 4 4 4 4 4 5 5 6 8 9 7
4 3 3 5 6 6 5 4 4 4 3 3 3 3 3 3 3 3 4 4 5 6 5 4 4 4 4 5 4 4 4 4 4 5 5 7 7 8
4 4 4 5 5 4 4 4 3 3 2 3 3 3 3 3 3 3 3 4 4 5 5 5 5 4 4 5 5 4 4 4 4 5 5 5 5 5
3 3 4 4 3 3 3 3 2 3 3 3 3 3 2 2 3 3 3 3 3 3 3 4 4 5 5 5 5 5 5 4 4 5 5 5 5 4
2 2 2 2 2 2 2 2 2 2 2 2 2 2 2 3 3 2 3 3 3 3 3 2 3 3 5 5 5 5 4 4 5 5 5 6 5 5
3 3 3 2 3 3 3 2 2 3 2 2 2 2 3 3 3 3 2 3 3 3 3 3 3 3 3 3 4 5 4 4 4 5 5 5 6 5
3 3 3 3 3 3 3 3 3 3 2 2 2 3 3 3 3 3 3 3 3 3 3 3 3 3 4 4 3 3 4 4 4 5 4 5 6 6
3 3 3 3 3 3 3 3 2 2 2 2 3 3 3 3 3 3 3 3 3 3 3 3 3 3 4 4 4 4 4 4 4 5 5 5 5 7
3 3 3 3 3 3 3 3 3 3 3 3 3 3 3 3 3 3 3 4 4 3 3 3 3 4 3 3 4 4 3 4 5 5 5 5 5 5
3 3 3 3 2 2 2 2 3 3 3 3 3 3 3 3 3 4 3 3 3 3 3 3 3 3 2 3 4 5 5 5 5 6 6 6 4 4
3 2 2 2 2 2 2 3 3 3 3 3 2 2 3 3 3 3 3 3 3 3 3 3 3 2 3 3 4 4 5 5 4 4 4 5 7 9
Wind_Direction
217 220 229 238 240 245 250 255 262 271 274 277 280 284 296 292 299 288 287 296 296 296 298 300 302 301 301 302 303 303 303 304 304 302 302 298 296 297
218 223 229 233 232 235 241 249 253 262 270 282 284 297 305 298 307 300 298 300 293 299 302 301 300 302 303 303 304 301 300 300 302 302 301 300 298 300
215 224 231 231 233 232 236 242 245 252 262 276 284 293 293 299 305 306 302 296 294 298 304 308 309 309 307 306 304 299 298 298 299 301 301 302 298 296
217 222 230 231 234 236 238 245 248 252 260 273 280 286 288 298 304 306 307 305 302 304 300 301 302 303 302 301 303 302 299 298 299 301 301 301 299 297
218 222 227 229 236 238 242 248 254 260 263 268 278 284 284 293 303 303 302 302 303 302 295 293 296 298 298 298 301 302 301 298 299 302 303 301 301 301
226 230 231 234 240 242 244 249 253 257 259 263 269 277 280 293 296 297 298 302 302 303 300 296 292 288 288 294 296 297 298 298 299 301 302 303 302 301
227 233 237 246 253 250 248 248 247 250 254 257 263 271 275 287 288 293 292 300 297 298 302 295 291 285 284 284 287 294 298 299 300 301 300 300 301 301
229 238 240 241 244 248 252 254 252 249 250 254 260 263 272 277 280 282 288 296 293 304 302 294 291 288 290 289 301 301 298 299 300 299 298 300 301 302
234 240 243 244 245 247 247 248 249 256 258 257 257 261 269 273 275 275 276 283 283 302 301 286 289 288 292 290 295 297 301 300 300 301 300 301 300 300
239 243 245 245 243 249 250 249 253 252 251 255 259 265 272 276 272 274 279 282 283 276 280 279 290 291 293 284 285 294 300 301 299 298 297 300 301 300
241 244 244 247 242 248 251 252 259 261 255 258 268 270 275 278 277 273 270 275 280 278 271 275 286 294 287 278 286 291 292 296 299 299 299 301 303 302
241 241 242 250 243 243 248 247 251 260 263 261 258 256 262 261 260 260 263 268 278 275 261 268 278 295 288 276 294 301 293 295 297 299 302 306 311 304
243 247 245 242 249 250 256 253 253 263 260 259 260 260 261 258 257 257 257 257 263 264 264 262 270 274 272 285 291 299 303 304 302 300 301 308 311 308
245 251 252 247 252 258 259 253 254 261 250 250 255 259 263 264 267 268 268 264 262 267 271 261 259 264 274 281 285 296 302 302 304 305 306 309 304 301
253 257 261 255 257 254 244 235 239 242 236 245 252 263 272 275 278 278 277 273 272 269 266 263 263 269 268 273 282 289 296 299 299 302 306 307 305 304
248 235 239 243 258 255 232 226 238 240 237 243 254 267 275 272 273 279 283 284 281 279 273 273 272 271 271 274 277 284 288 288 300 304 305 303 301 297
234 238 229 230 241 239 234 237 239 237 239 241 246 257 264 268 271 278 281 283 277 285 292 288 281 279 277 278 277 277 287 296 300 303 306 306 304 303
212 221 226 232 236 235 232 237 237 236 238 240 241 246 254 261 270 275 275 272 275 280 286 291 299 296 286 263 249 270 283 292 301 301 300 300 303 307
216 224 228 233 239 237 234 236 242 243 238 232 238 243 247 254 261 266 268 273 278 280 282 286 291 293 293 296 280 245 280 298 302 299 298 296 297 304
227 229 233 236 237 235 234 236 238 239 237 235 235 240 244 250 257 260 262 272 280 284 284 281 278 279 279 288 293 294 282 287 292 296 300 300 296 293
229 233 235 236 240 239 234 234 233 236 239 238 237 239 243 247 254 260 264 271 275 277 281 282 285 286 282 281 283 292 303 287 286 287 295 298 303 308
230 236 238 239 238 237 230 231 232 234 235 237 238 239 243 246 252 258 260 263 268 276 282 288 294 283 264 265 283 297 306 313 300 289 280 274 289 297
232 234 238 235 233 231 227 228 234 235 234 235 238 242 246 249 251 253 257 260 263 272 282 286 287 277 266 270 282 292 302 310 315 317 307 297 287 286